Theta_e
308 307 305 305 306 307 305 304 303 303 302 302 303 304 304 305 305 306 307 308 307 307 306 307 308 309 310 312 313 310 311 312 313 312 314 314 310 313 313 316 316 322 331 332 340 347 343 344 345 345 345 343 344 346 349 349 348 352 357 356 352 354 353 351 353 349 347 353 360 358 357 359 359 356 354 355 354 352 352 350 350 349 349 350 351 350 350 350
306 305 305 305 305 304 303 302 303 303 303 303 303 304 304 306 307 308 309 310 309 308 307 308 308 310 311 312 312 311 312 313 313 314 318 318 320 319 315 315 316 323 336 340 343 344 341 342 343 342 342 341 341 344 348 348 349 352 356 354 352 356 354 350 350 348 348 350 357 358 355 356 357 355 354 356 356 352 353 353 351 351 350 350 351 350 350 350
305 305 305 305 304 303 302 302 303 303 303 303 304 305 306 308 309 310 311 311 311 310 309 309 309 310 311 311 312 312 313 313 318 322 324 327 328 325 320 314 316 324 334 339 340 340 341 342 342 339 339 340 339 342 347 347 349 351 353 354 354 355 353 350 349 349 347 348 356 358 355 355 354 353 354 356 356 353 355 354 352 353 351 349 349 350 350 350
304 305 305 305 304 303 302 303 303 304 303 304 305 306 308 309 310 310 311 311 311 311 310 310 311 311 310 311 312 313 312 318 320 318 324 329 327 327 323 314 317 323 332 342 339 336 340 342 340 337 337 337 337 342 346 346 349 351 352 355 354 352 352 351 349 347 347 349 355 357 355 355 354 353 353 355 357 356 355 353 353 352 351 349 348 349 350 349
304 305 305 306 305 303 303 303 304 304 304 305 306 308 309 310 310 310 311 311 311 311 311 311 312 311 311 311 312 312 314 319 316 316 322 329 325 325 323 315 317 323 333 341 337 333 338 339 335 332 332 334 336 341 344 344 347 350 352 353 352 350 352 352 348 346 347 350 355 356 356 355 353 353 353 355 357 357 354 352 351 350 349 348 347 348 349 349
303 304 305 306 305 304 303 304 305 304 305 306 308 309 309 309 309 310 310 311 311 311 311 312 313 311 312 312 311 312 314 310 315 316 318 324 324 325 322 314 317 325 334 337 333 332 335 333 329 327 327 330 335 337 338 342 345 349 351 350 351 351 352 352 350 348 346 348 353 355 355 353 353 354 353 354 355 354 351 351 350 349 349 349 348 348 347 347
303 304 305 306 306 305 303 304 305 305 307 308 309 309 309 309 309 309 310 311 311 311 313 313 313 312 313 313 313 313 312 310 314 317 315 319 326 326 320 316 318 328 334 335 331 330 330 329 326 325 325 327 332 333 333 338 343 348 350 348 348 348 350 350 347 345 342 344 348 350 353 353 355 355 353 353 353 351 350 349 349 350 352 350 348 346 345 346
303 304 305 306 306 305 304 305 306 307 308 309 310 309 308 309 309 308 309 310 310 312 314 313 313 313 313 314 315 313 311 313 314 316 315 318 328 327 325 324 322 329 334 331 330 329 328 327 326 325 325 325 328 330 331 335 340 345 347 345 344 344 344 343 342 341 339 341 343 348 352 353 354 354 354 354 352 350 350 349 349 350 350 349 347 345 345 346
302 304 305 306 306 305 304 305 306 308 309 310 310 309 308 309 309 309 308 309 311 314 314 313 313 313 313 314 314 310 310 313 315 316 315 321 328 326 330 329 323 329 332 328 328 327 327 326 325 325 324 325 327 328 330 332 335 340 343 343 342 341 340 339 339 339 339 339 343 350 351 352 352 352 354 353 351 350 350 350 349 350 349 349 347 346 345 345
302 304 305 306 306 306 305 305 307 308 308 309 310 309 309 308 309 309 308 310 313 315 314 313 314 313 314 314 312 309 310 314 316 317 315 323 329 326 330 328 322 329 331 326 327 325 326 325 324 324 323 325 326 327 329 330 332 335 337 338 339 339 338 338 339 338 338 337 342 347 348 351 351 352 355 353 350 350 350 351 350 350 350 349 348 346 347 347
302 303 305 306 307 306 305 305 307 307 306 308 309 309 308 308 308 308 309 312 314 314 314 314 314 313 313 313 311 310 312 315 316 315 313 320 328 327 329 326 321 326 330 327 326 324 324 324 324 322 321 323 326 328 329 329 331 333 334 335 336 336 336 336 337 337 336 338 340 343 346 350 352 352 354 352 350 351 351 352 351 351 351 349 349 347 347 348
301 303 305 306 307 306 305 306 306 306 306 306 307 308 307 307 308 308 311 314 313 312 313 313 313 314 314 313 313 314 315 317 316 313 311 315 322 325 327 327 320 319 326 328 325 324 323 323 323 320 319 322 324 325 325 328 330 331 332 335 336 335 335 334 334 336 337 338 340 343 344 348 353 353 352 351 351 351 352 352 352 351 351 349 349 348 347 348
301 302 304 305 307 306 305 306 306 306 306 306 307 306 306 307 308 310 313 313 311 311 313 313 314 314 315 315 315 316 317 319 316 312 311 311 316 322 326 328 322 315 319 325 326 325 322 322 323 319 319 322 323 321 322 327 328 330 331 332 335 334 334 336 335 335 337 338 341 343 337 341 354 351 350 352 350 352 353 353 352 351 351 350 349 348 347 349
301 302 303 305 307 306 305 306 305 306 306 306 306 306 307 307 308 312 314 311 310 312 314 314 315 315 317 318 315 314 315 316 314 310 310 310 311 319 328 329 323 315 316 320 322 323 322 321 322 320 320 322 323 321 322 325 327 328 328 328 331 328 329 335 336 336 338 338 342 342 332 337 351 349 349 352 350 353 353 353 353 351 352 350 350 349 348 348
301 302 303 305 307 306 306 306 306 306 307 307 306 307 307 307 310 314 312 309 311 314 315 315 315 316 319 318 314 313 313 313 312 310 309 311 309 315 328 329 322 318 317 318 318 321 322 321 322 320 320 322 323 323 323 324 327 328 322 319 325 325 326 334 335 336 340 340 342 341 333 338 347 346 349 351 351 354 354 354 353 351 352 350 350 350 348 348
301 302 303 305 306 306 306 306 306 306 308 307 307 307 308 309 313 315 311 309 313 316 316 317 317 317 318 313 312 312 312 310 309 310 308 310 308 309 323 328 323 319 320 319 317 318 320 321 322 320 320 321 321 324 324 320 322 328 322 317 322 323 322 329 333 335 338 341 344 341 337 342 346 345 348 351 352 354 354 355 354 352 352 351 350 349 349 348
301 302 303 305 306 306 306 306 306 307 308 308 307 307 309 311 314 317 312 310 314 316 317 319 317 317 317 310 311 310 310 309 308 309 308 310 309 309 321 327 322 320 321 319 317 317 319 321 322 322 322 321 321 323 320 315 316 323 325 321 324 325 321 324 331 334 336 339 343 344 342 343 345 346 348 351 352 354 355 355 354 353 352 352 351 350 349 349
301 302 303 305 306 306 306 306 306 307 308 308 307 307 310 312 315 317 311 308 313 316 317 317 316 318 316 310 310 308 309 308 308 309 308 311 311 309 322 328 321 319 319 318 318 316 318 319 320 321 322 321 322 320 316 315 316 319 322 321 322 325 323 324 329 333 336 338 342 344 344 344 344 346 349 351 352 353 355 355 354 353 352 353 352 350 350 350
301 301 303 305 306 307 307 307 307 307 308 309 308 307 309 311 313 314 310 307 310 313 313 312 311 311 310 309 308 308 309 308 309 310 309 311 311 311 322 327 321 319 317 317 318 317 317 318 318 319 320 320 322 320 317 319 321 321 323 324 322 322 324 328 332 332 335 338 340 343 343 345 345 346 350 351 352 354 355 355 355 354 353 353 352 351 351 350
301 301 302 305 307 307 307 307 307 307 308 309 308 308 309 310 310 310 309 307 306 306 307 307 306 307 308 308 308 308 309 309 309 311 310 311 312 316 323 324 320 318 317 317 318 317 316 317 318 317 318 320 321 321 320 322 325 325 325 325 325 323 323 329 333 331 333 335 337 341 342 343 344 345 349 351 352 354 355 356 356 354 354 353 353 352 351 351
301 301 302 305 307 307 307 307 308 308 308 308 309 309 309 310 310 309 308 307 305 304 305 305 305 306 307 307 307 307 307 309 309 311 311 311 314 319 323 323 322 320 317 317 317 317 316 316 317 317 318 318 320 321 321 321 323 326 326 324 325 325 324 329 331 329 331 332 333 338 339 340 343 343 348 351 353 355 354 356 356 355 355 354 354 353 351 351
300 300 303 306 308 308 307 307 308 308 308 308 309 309 309 309 310 309 307 307 306 304 304 305 305 306 307 307 307 306 307 309 310 311 311 311 313 316 320 323 325 323 319 316 317 317 316 316 317 317 317 316 318 319 320 321 321 324 326 324 323 325 326 329 330 329 330 330 331 335 335 336 340 341 346 351 352 354 353 354 355 355 356 355 354 354 352 351
300 300 304 308 308 308 308 307 309 309 308 308 308 308 308 309 310 308 306 306 306 305 306 306 307 307 307 307 307 306 307 309 310 311 311 311 312 311 315 322 325 324 321 317 317 317 316 317 317 317 315 315 316 318 319 320 320 321 323 322 322 325 325 323 326 329 329 329 331 334 331 332 337 340 345 350 350 352 352 352 353 354 355 355 354 353 353 353
300 300 304 309 309 309 308 308 309 309 309 308 308 308 308 309 311 308 307 306 306 307 307 307 307 307 306 307 307 306 307 308 308 310 310 311 311 311 312 318 322 323 322 320 318 317 317 318 318 316 316 315 315 317 319 319 318 319 321 322 323 326 326 323 325 328 327 327 330 330 326 328 333 336 341 346 349 352 352 352 353 354 354 354 353 353 352 352
300 300 304 309 309 309 308 308 309 309 308 308 308 308 308 310 311 308 307 307 307 308 307 306 307 306 305 307 307 307 307 308 309 310 310 310 311 311 312 315 319 322 322 321 320 319 318 318 318 316 316 316 315 316 318 317 316 317 320 322 324 327 328 327 328 327 323 323 327 328 322 324 331 333 336 343 350 352 352 353 353 354 354 354 354 353 352 352
300 300 303 308 309 309 309 309 309 308 308 309 308 308 309 310 310 308 307 308 308 308 307 307 307 306 306 307 307 307 308 309 310 309 311 311 311 311 312 313 316 320 321 321 321 321 320 319 318 317 316 316 316 315 317 319 316 314 319 321 324 327 327 327 328 325 320 321 327 328 323 323 326 330 334 342 350 353 352 353 353 353 354 353 353 353 352 352
300 299 302 307 309 308 309 309 308 307 308 308 308 308 309 309 310 308 307 308 309 308 307 307 307 306 307 307 307 308 309 310 310 310 310 310 310 311 312 314 315 317 320 321 321 321 321 321 319 318 318 317 316 316 317 319 315 315 321 324 324 326 327 328 327 325 323 323 326 326 324 321 320 326 336 340 346 353 354 354 353 352 353 352 352 352 352 352
300 300 301 306 309 308 308 308 307 307 307 307 308 308 308 309 310 308 307 308 308 307 306 306 306 306 307 307 308 308 308 309 309 310 309 309 311 311 311 313 314 316 319 320 321 322 322 322 321 320 319 318 317 317 318 319 316 318 324 326 325 326 327 328 327 325 325 324 323 323 323 321 319 325 336 340 340 347 354 356 354 353 353 352 351 351 351 351
301 301 301 306 309 308 307 307 307 307 307 308 308 307 307 309 309 307 307 309 308 306 306 306 306 306 307 307 307 307 308 308 309 308 309 310 312 312 311 312 312 314 317 318 320 322 322 322 322 321 320 320 319 318 318 319 318 320 325 326 326 327 328 328 327 324 324 325 323 322 321 321 320 321 328 335 336 340 350 354 354 353 353 352 352 350 350 350
303 303 302 305 310 308 307 307 307 307 308 308 308 307 307 308 308 307 308 308 307 306 306 306 306 306 307 307 307 307 307 308 308 307 309 311 312 311 311 311 311 312 314 315 316 317 317 318 320 321 321 321 321 320 319 318 319 322 324 326 327 327 327 328 326 324 324 325 324 323 321 321 321 321 324 332 336 340 346 349 352 353 353 352 352 350 349 349
305 305 302 305 310 308 307 307 307 307 308 308 307 306 306 308 307 308 308 306 306 306 306 306 306 306 306 307 306 306 307 308 307 308 309 312 312 311 311 312 312 313 313 314 315 315 316 317 319 322 322 322 322 321 320 319 320 322 323 323 324 324 325 325 324 324 325 324 322 323 323 321 320 321 325 332 336 339 341 344 349 351 352 353 352 350 350 349
307 304 302 307 310 308 306 307 306 307 308 308 307 306 307 308 308 308 308 306 306 306 306 306 306 306 306 307 306 306 307 307 307 307 309 311 312 310 311 311 311 314 315 314 315 316 317 318 320 320 322 323 322 321 321 321 321 321 321 320 319 321 324 325 324 324 324 322 320 322 323 321 320 324 328 332 334 335 337 340 344 347 350 352 352 351 350 349
307 304 304 307 308 307 306 306 306 307 308 308 308 308 308 307 308 309 308 306 306 306 306 306 306 306 306 306 306 306 306 307 307 308 309 311 313 311 310 310 309 312 315 314 315 315 317 319 319 320 322 323 322 321 320 320 322 321 319 318 319 321 325 326 325 324 323 320 319 321 322 319 319 324 330 331 330 331 334 337 341 344 347 350 351 352 350 350
306 305 307 307 306 306 306 306 306 307 308 308 309 309 308 308 310 310 307 306 306 305 305 305 306 306 306 306 306 306 306 307 307 309 310 312 313 312 312 311 309 310 312 314 316 315 317 318 319 319 319 319 323 323 322 322 323 323 322 321 320 320 322 324 323 322 322 320 318 320 321 318 317 324 330 329 328 330 330 332 337 343 345 347 349 350 350 350
305 305 308 306 305 306 306 306 307 307 307 308 308 309 309 309 309 308 307 306 305 305 305 305 306 306 306 305 305 306 306 306 307 308 310 312 313 312 311 311 310 310 311 314 316 315 317 318 317 317 315 316 320 322 323 324 322 324 325 323 320 321 322 321 320 320 319 318 318 318 319 320 322 327 329 327 329 329 329 331 333 338 342 345 346 348 350 350
304 305 308 306 305 306 306 306 307 306 307 308 309 309 309 309 308 307 307 306 305 305 305 305 306 306 306 305 305 306 306 306 307 308 309 311 312 312 311 311 310 309 310 313 314 314 318 318 316 315 315 317 318 319 322 322 321 323 324 321 323 326 325 320 319 321 320 319 320 318 317 320 322 325 327 326 328 329 330 331 330 334 339 343 345 347 348 349
304 305 308 307 306 306 306 306 306 306 307 308 310 309 308 308 306 305 306 305 304 305 305 306 306 306 306 305 305 305 306 306 307 307 307 309 311 311 311 311 310 309 309 311 312 312 315 316 315 315 317 318 317 318 320 321 323 323 321 322 326 328 327 322 320 321 321 320 321 317 316 317 316 320 326 328 328 329 330 331 330 332 337 340 342 345 348 348
304 305 307 307 306 306 307 306 306 306 308 309 311 311 308 306 305 305 305 303 304 305 305 306 306 306 305 305 305 305 306 306 307 307 307 308 310 311 311 311 310 310 309 310 311 311 311 315 317 316 318 318 318 319 320 321 323 323 322 325 326 323 323 323 322 323 322 321 321 318 316 315 314 317 323 326 328 329 329 331 332 332 334 338 338 343 347 348
304 305 307 306 305 306 307 307 307 308 309 309 311 311 308 307 307 307 305 304 305 306 306 306 306 305 305 305 306 306 306 307 307 308 307 307 309 310 311 311 310 309 309 309 311 310 311 315 319 318 318 318 318 319 319 320 323 324 324 326 325 322 322 323 323 322 322 322 322 320 317 315 317 321 323 326 328 328 330 333 333 332 334 336 338 341 345 347
304 306 306 306 306 306 307 308 309 310 310 309 310 310 308 309 309 308 306 305 305 305 306 306 306 305 305 305 306 306 307 307 308 308 307 307 309 310 310 310 309 309 309 309 310 310 311 315 319 320 317 317 319 320 320 320 322 322 322 322 322 322 323 324 323 320 320 322 322 322 319 316 320 328 326 327 329 329 331 334 335 334 333 335 338 341 344 347
304 306 307 306 306 306 308 309 310 310 310 309 309 309 310 311 310 307 307 306 305 305 305 306 306 306 305 306 306 306 306 306 307 308 307 307 308 308 309 309 309 308 309 310 310 311 313 315 318 319 318 318 319 320 320 319 319 319 320 321 322 322 322 322 322 321 319 320 320 322 320 318 323 330 328 326 329 330 331 334 335 335 333 335 340 341 344 347
306 308 308 306 305 306 308 310 309 309 309 309 308 308 310 311 309 307 307 306 306 306 306 306 306 306 306 306 306 306 306 306 307 308 307 308 308 308 309 309 309 309 308 310 310 311 314 316 317 318 318 318 318 318 318 317 317 317 318 320 323 322 321 319 321 321 319 319 320 320 319 321 327 333 330 327 329 329 330 333 334 334 334 336 339 341 344 347
306 308 307 306 305 307 309 309 308 309 309 308 308 308 309 309 309 308 307 307 307 306 306 306 306 306 307 307 307 307 307 306 307 307 308 309 309 309 309 309 309 308 308 310 311 312 315 317 318 319 318 317 317 317 317 316 317 317 318 319 320 320 320 319 321 323 321 319 319 320 320 321 328 337 335 330 329 327 326 330 332 334 336 337 339 341 345 348
305 306 306 306 306 307 308 308 308 309 308 308 308 309 309 308 309 309 308 307 308 307 306 306 306 307 307 307 307 307 307 307 308 308 309 309 310 310 310 309 309 308 308 310 311 312 315 317 318 319 320 319 319 319 319 318 318 318 318 318 317 318 320 320 321 324 322 320 320 322 321 321 330 342 340 332 329 326 323 324 325 328 332 334 337 340 345 350
306 307 307 306 306 306 307 306 307 308 308 308 309 309 309 308 308 309 308 308 308 307 307 306 306 307 307 307 307 307 307 307 307 308 309 309 310 310 309 309 309 308 308 310 312 313 316 318 318 320 321 321 322 322 320 319 319 318 317 317 317 318 319 320 322 321 320 321 321 320 320 322 330 338 336 332 330 328 329 327 325 325 328 331 334 339 343 348
307 309 309 307 306 306 306 305 306 307 307 308 309 309 308 308 308 308 308 308 308 307 307 307 307 307 308 308 308 308 308 307 307 308 308 308 308 308 309 310 309 308 309 311 312 313 315 317 317 318 320 321 321 319 316 315 317 317 317 317 317 318 318 321 322 320 321 322 320 321 323 322 325 331 332 332 332 331 332 331 329 329 330 330 334 338 341 345
307 308 308 307 307 307 307 307 307 307 307 307 309 309 308 308 308 308 308 308 308 308 307 308 308 309 309 309 309 309 308 308 308 308 308 307 307 308 309 309 309 308 310 312 311 311 314 316 316 316 317 317 316 316 314 314 315 316 316 317 317 318 319 322 323 322 324 322 317 325 332 323 322 331 338 340 343 343 340 336 335 336 336 336 337 336 336 338
307 307 306 306 308 308 308 308 307 307 307 307 308 308 307 307 308 308 308 308 308 308 308 309 309 308 309 309 309 309 309 309 309 308 308 308 308 308 308 308 308 308 310 311 310 310 312 314 314 314 315 314 314 314 313 314 314 315 316 316 317 318 321 326 327 325 327 326 321 329 336 329 331 344 347 349 354 353 351 349 347 347 349 351 350 344 337 334
307 307 306 307 308 308 308 308 307 307 307 308 309 308 307 307 307 307 307 308 309 309 309 310 309 307 308 308 308 309 310 309 309 309 308 308 308 308 308 308 308 309 310 311 310 309 311 313 314 313 314 314 314 314 314 314 314 315 315 316 317 322 327 332 333 332 331 329 325 330 333 333 343 353 352 352 355 353 353 354 353 355 356 357 357 353 344 336
307 307 308 308 308 308 308 308 307 307 308 308 308 308 308 308 307 307 307 307 309 309 309 309 308 308 308 308 308 309 309 308 309 309 308 309 308 309 309 309 308 309 311 310 310 310 310 312 314 313 314 315 315 314 315 314 315 315 316 318 322 329 336 338 337 337 337 334 331 331 329 331 344 351 352 353 353 353 354 354 354 355 355 355 357 356 352 343
307 308 308 309 309 309 309 308 307 308 309 308 309 309 308 308 307 307 307 307 308 309 308 308 308 308 308 308 308 309 309 308 308 308 308 308 308 308 309 309 309 310 311 310 310 310 310 312 313 313 315 316 316 315 315 315 315 316 316 322 330 335 338 339 336 336 338 339 339 333 328 335 344 347 351 355 354 354 354 354 354 354 352 354 355 356 357 352
308 308 308 309 310 309 309 308 308 309 310 309 309 309 308 308 307 307 308 309 308 308 308 308 308 308 308 308 308 308 307 307 307 307 307 307 307 307 307 308 308 309 310 311 310 310 310 311 311 313 315 317 316 315 315 316 319 321 319 324 332 334 335 335 333 331 332 336 340 337 335 339 341 341 348 355 354 355 357 354 354 354 353 353 354 355 357 357
Wind_Speed
26 27 28 29 28 26 25 25 25 25 25 24 21 19 18 17 18 17 15 13 12 12 13 14 15 15 14 12 11 10 10 9 7 5 9 15 16 14 12 7 14 22 20 25 29 23 17 14 13 14 12 7 3 5 7 5 3 3 3 3 4 3 3 2 0 2 2 2 7 10 10 10 9 7 6 6 7 10 9 5 6 6 6 9 16 25 30 31
29 30 31 30 30 29 28 27 26 26 25 24 22 20 19 18 18 18 17 15 13 12 12 14 15 14 13 11 10 9 8 7 8 10 10 11 14 10 14 11 17 26 26 28 29 26 20 15 16 15 9 5 3 5 7 6 5 5 4 4 5 4 3 2 2 2 3 1 6 11 9 9 10 10 8 8 10 11 9 7 8 9 11 14 21 29 30 31
32 32 32 32 31 30 29 27 27 27 25 24 22 20 20 19 19 18 18 16 13 12 12 13 13 13 12 10 9 8 7 6 5 7 6 13 17 13 12 15 19 28 28 28 29 27 22 21 22 17 9 6 3 5 7 6 6 6 5 5 5 5 5 4 5 5 5 3 6 11 8 7 9 9 8 8 11 12 10 9 10 11 13 16 22 28 30 31
34 34 33 33 32 30 29 28 27 27 25 23 22 21 20 20 19 18 18 16 13 11 11 12 12 12 10 9 8 7 6 4 1 5 12 16 17 12 10 18 21 29 27 23 20 17 19 22 20 13 9 6 4 6 7 7 6 5 7 6 3 3 5 3 3 4 3 3 5 9 9 8 8 8 8 10 10 9 10 12 13 15 17 19 22 26 30 30
35 34 34 33 33 31 29 28 27 26 24 22 22 22 21 20 18 17 17 15 12 10 10 11 10 10 8 8 7 6 4 2 3 11 19 17 12 6 10 20 24 30 26 20 15 14 19 21 15 9 6 5 7 6 7 11 7 5 8 7 4 2 3 2 2 4 4 1 5 8 9 8 8 8 10 14 11 6 8 12 13 17 20 22 24 25 27 28
35 35 35 33 33 31 29 28 26 25 22 22 22 22 21 20 18 17 15 13 12 11 10 9 8 8 7 7 5 4 3 1 5 14 25 21 9 2 12 22 26 31 26 21 17 16 18 17 13 9 5 5 10 8 5 11 9 6 7 8 9 7 7 5 2 3 6 1 5 7 7 7 9 9 11 15 10 2 5 11 14 17 21 24 26 26 26 26
36 36 35 34 33 31 29 27 25 23 21 21 21 22 21 20 19 16 13 11 12 13 9 6 6 5 6 5 2 1 1 3 4 15 29 25 11 0 16 23 27 30 26 21 18 16 16 16 14 9 8 6 9 9 3 9 12 8 8 8 9 9 11 10 7 8 7 4 5 5 7 9 12 9 9 15 8 4 9 14 16 18 22 24 25 25 25 26
37 37 36 35 33 31 29 26 24 22 21 20 20 21 20 20 19 16 14 13 13 12 6 4 5 4 4 4 2 1 1 4 2 17 31 24 12 4 20 22 28 30 24 25 21 18 17 16 15 9 10 7 7 10 5 7 11 12 11 6 6 8 9 9 8 8 7 6 5 7 9 11 13 7 8 14 8 7 13 16 18 19 21 21 22 24 24 24
37 37 36 35 33 31 29 26 24 21 20 20 19 19 19 20 19 17 15 15 13 7 4 4 3 4 4 2 1 3 2 3 0 19 29 18 9 8 21 20 30 28 20 24 23 20 16 14 15 9 8 8 7 10 9 8 7 12 14 7 5 6 6 7 8 8 8 6 3 8 11 11 11 5 6 12 9 11 15 17 19 20 20 20 20 22 23 23
38 37 37 35 33 31 28 26 23 21 21 19 19 19 19 20 19 17 16 14 9 5 5 4 3 3 3 1 1 2 3 2 5 18 23 13 5 11 19 20 32 28 19 20 20 22 16 13 14 6 3 6 7 8 10 10 3 5 11 11 11 11 10 10 11 11 9 7 6 9 10 9 11 7 6 9 12 14 16 17 19 20 20 20 19 19 21 23
40 38 38 36 33 31 27 25 21 21 21 19 18 18 19 21 18 15 14 10 6 7 6 3 2 1 1 1 1 2 6 8 8 15 20 12 1 11 16 20 30 25 21 19 19 23 16 12 13 5 2 5 6 6 8 9 4 3 6 9 12 12 12 12 12 11 8 6 8 10 8 6 10 9 8 10 14 15 17 18 19 19 18 18 19 18 18 20
41 39 38 36 33 30 26 23 21 21 21 19 19 19 21 20 15 12 9 7 8 9 7 3 3 1 2 1 3 3 8 8 7 14 19 12 2 7 11 18 26 21 18 18 18 21 14 13 17 9 4 5 7 4 5 9 7 6 5 7 9 8 11 12 12 10 7 6 7 8 6 6 11 12 9 12 15 16 16 17 18 17 16 17 17 16 16 19
42 40 39 37 34 30 26 23 20 21 21 20 20 22 21 16 12 9 5 8 12 11 7 4 2 3 1 1 3 5 9 8 9 15 18 12 7 2 8 14 24 19 12 14 15 16 11 13 18 11 3 4 6 1 2 7 8 7 6 7 7 7 9 8 8 9 9 7 7 8 5 5 12 14 11 14 17 16 16 16 16 15 14 15 15 14 16 19
42 41 39 37 34 29 25 22 20 21 20 20 22 21 16 12 9 5 5 12 15 10 5 3 1 3 2 2 1 7 10 12 12 16 18 10 8 2 5 10 20 15 7 10 11 12 10 10 11 6 2 2 1 1 2 3 6 7 6 6 6 6 6 3 3 8 9 7 11 10 6 4 9 12 13 15 18 18 16 16 16 15 14 14 15 15 15 17
43 41 39 37 33 28 23 21 20 21 20 21 20 15 13 10 5 4 8 16 13 7 3 2 2 1 2 2 2 9 11 14 15 17 18 9 6 3 5 10 17 12 6 8 12 14 9 7 8 6 4 2 2 3 4 2 3 6 6 6 6 6 8 6 3 7 8 5 12 12 6 4 7 10 15 15 18 19 16 16 16 16 16 15 15 15 15 16
44 42 39 37 33 27 22 20 20 20 20 21 15 12 14 8 3 4 10 17 10 5 2 0 1 2 1 2 6 10 9 13 19 21 17 9 7 2 6 10 15 10 4 5 10 16 10 6 6 5 4 3 5 5 3 4 4 5 6 6 6 7 10 7 3 8 10 5 10 13 6 3 4 8 15 16 19 19 16 16 17 17 17 16 14 14 14 15
44 42 39 37 33 26 21 19 19 19 22 20 11 11 15 5 4 3 10 17 8 1 2 3 2 2 1 4 8 10 12 18 23 21 14 8 5 5 9 9 11 9 4 5 10 15 11 7 4 3 5 5 6 5 5 8 7 5 6 6 5 8 11 6 1 5 10 8 9 13 11 6 2 7 14 17 19 19 16 17 18 16 15 15 14 14 15 16
43 43 40 36 32 25 19 18 18 18 22 21 9 9 16 7 3 3 11 16 6 2 2 3 3 2 1 8 9 11 18 21 20 16 11 10 2 9 11 9 9 10 8 5 8 10 8 7 5 5 6 7 7 8 9 8 7 8 8 6 6 8 11 9 4 2 6 10 11 11 13 11 5 6 12 17 19 19 17 17 16 16 16 15 14 15 15 16
43 43 40 36 31 23 18 16 17 16 21 24 10 4 13 9 1 2 11 14 4 1 2 2 3 1 3 10 10 14 20 15 11 11 11 10 4 10 9 9 12 12 9 7 7 8 7 6 6 8 9 11 12 13 12 3 1 9 9 6 6 7 9 8 5 2 3 7 10 11 12 12 9 8 11 15 18 18 17 15 14 14 15 14 14 14 16 17
43 44 41 36 29 22 17 15 17 15 18 25 14 2 7 9 1 2 10 10 3 1 3 2 1 1 6 10 10 17 17 6 5 11 14 11 5 10 8 9 11 9 8 9 8 7 8 7 9 12 12 13 13 12 12 4 1 4 8 8 8 8 9 6 6 4 3 5 8 10 11 12 12 10 12 14 16 16 15 15 14 14 14 15 16 16 17 18
44 44 41 35 27 20 14 14 18 15 14 22 20 7 3 7 5 3 7 6 2 1 5 4 3 6 8 10 11 13 9 2 3 7 15 12 4 7 5 8 9 7 8 9 7 6 8 9 11 14 10 7 8 9 10 9 8 5 5 7 8 9 9 6 4 3 4 5 6 7 10 13 12 11 11 13 15 16 16 17 16 17 17 15 17 19 18 15
43 44 40 31 23 18 12 13 20 16 13 18 19 10 4 6 7 5 3 4 3 2 4 5 3 5 9 9 6 5 2 4 6 7 16 14 2 1 3 7 7 6 8 8 6 5 8 11 13 11 7 6 7 9 11 13 14 10 5 5 6 6 5 7 6 4 4 5 6 7 9 11 11 11 11 13 15 15 17 19 18 19 18 15 17 18 17 15
43 43 38 28 21 18 10 12 20 19 14 14 13 8 4 7 11 5 2 2 4 2 1 2 1 3 9 5 4 7 3 2 5 8 15 11 4 3 1 6 7 5 8 11 10 8 7 9 12 8 8 10 10 11 13 12 12 12 8 6 6 4 4 6 5 3 4 6 7 6 7 9 9 8 10 15 16 15 16 19 18 17 19 19 19 18 17 19
41 42 37 25 20 18 9 9 19 20 14 9 9 8 8 15 14 3 2 1 3 3 2 2 1 3 8 7 8 9 3 1 3 8 12 9 6 3 2 4 7 6 7 11 12 11 6 3 7 10 10 13 13 12 14 11 9 13 13 11 7 6 6 5 2 3 4 7 7 6 7 8 8 9 9 12 15 14 15 16 15 15 16 16 15 16 17 18
40 40 35 23 19 16 7 6 15 19 12 4 6 11 19 21 11 1 2 1 1 1 2 1 1 2 8 9 10 7 2 1 2 6 7 8 7 3 1 2 6 7 8 11 11 12 8 1 8 13 14 15 15 13 15 13 8 11 15 16 12 8 8 6 5 5 5 6 6 6 9 8 7 12 12 9 12 14 13 15 17 16 15 13 13 15 17 17
40 38 33 23 17 15 6 2 12 18 9 3 8 20 24 18 3 5 2 1 0 1 1 1 1 5 10 9 10 6 3 1 5 7 7 9 8 3 2 1 4 5 7 9 7 7 7 6 8 13 15 17 16 13 15 15 9 8 12 17 16 12 10 10 9 6 5 5 2 4 9 7 4 10 12 9 13 16 15 16 18 16 14 15 14 15 16 17
38 36 32 22 15 15 6 1 11 14 6 7 19 25 23 10 6 7 2 2 0 1 2 3 2 8 10 8 11 5 2 6 9 5 10 15 8 2 4 3 4 5 5 6 5 4 8 11 11 12 13 14 14 12 14 16 11 8 8 13 16 15 14 13 11 8 6 5 6 6 8 7 6 7 8 9 13 16 17 17 18 16 16 17 17 16 17 18
37 36 31 20 12 12 7 3 8 9 9 18 24 24 17 0 11 6 2 2 0 1 2 3 2 7 8 7 11 7 1 8 6 4 16 18 6 2 5 6 7 8 9 8 8 5 9 14 14 13 12 10 11 11 14 18 13 7 6 10 13 15 16 14 10 9 7 5 9 9 6 7 8 6 5 8 12 15 16 18 19 18 18 19 18 19 19 19
37 36 30 18 9 9 8 5 7 13 21 25 24 20 5 10 10 2 1 2 0 2 1 2 2 6 8 5 9 9 4 5 4 7 16 12 4 1 4 4 6 8 9 10 10 5 5 9 11 15 13 10 10 11 13 18 13 6 7 9 10 13 14 12 10 9 8 8 11 10 8 7 9 6 7 8 11 13 13 15 17 18 19 19 19 20 19 18
36 36 29 15 7 11 11 6 10 21 25 25 22 11 7 9 2 2 1 2 1 3 0 3 3 4 8 5 6 9 7 5 6 8 8 6 6 3 1 1 3 6 8 8 9 8 5 8 8 12 13 10 9 11 13 17 14 7 7 9 9 9 9 9 9 7 8 10 13 13 11 9 10 8 9 8 7 8 10 11 14 15 17 18 18 18 18 16
36 35 24 9 4 12 11 8 18 26 24 24 18 3 7 1 1 3 1 1 0 2 0 4 5 3 8 8 6 9 7 6 8 9 7 6 7 8 4 2 3 3 7 9 8 8 8 11 8 6 10 11 11 10 12 16 16 10 9 8 6 5 5 6 6 7 10 11 11 14 13 11 12 9 7 8 7 9 11 12 14 16 18 18 17 17 17 16
36 33 17 3 3 10 10 11 23 26 22 22 12 2 3 2 2 3 1 1 2 2 1 3 6 5 5 5 6 10 6 6 9 9 8 6 6 9 8 5 5 3 6 7 7 7 9 12 8 4 8 14 13 10 9 13 15 12 10 10 8 6 5 7 7 7 11 8 6 10 12 12 13 9 8 7 7 11 13 12 13 16 18 18 18 18 16 16
36 26 9 7 6 10 15 20 25 22 19 18 8 1 1 2 2 0 1 1 0 2 2 1 4 5 4 3 6 9 5 5 10 9 6 4 4 6 7 9 8 3 3 3 3 6 9 11 11 10 8 10 14 12 8 9 12 13 12 10 10 8 7 9 9 7 9 7 5 7 8 10 12 9 11 12 11 13 13 11 12 15 17 18 18 18 17 17
34 16 7 11 12 16 25 27 22 17 13 11 5 1 1 3 1 2 0 1 1 1 2 1 2 3 6 5 5 7 3 3 9 9 5 3 3 3 4 9 11 5 2 3 2 5 9 9 9 10 4 2 10 14 11 9 10 12 12 11 10 9 8 8 7 7 7 5 6 9 7 7 7 3 5 12 16 16 14 14 13 12 14 15 15 17 17 17
29 8 5 14 16 22 31 27 19 12 6 3 2 1 2 2 0 1 1 1 0 0 1 2 1 1 4 4 4 6 3 3 8 8 4 4 3 4 4 6 11 9 4 2 1 2 6 5 1 1 2 1 3 7 9 10 10 10 11 11 11 10 9 6 5 6 5 5 7 9 6 4 2 4 4 5 11 16 17 18 17 14 13 12 12 14 16 16
26 6 2 16 23 28 32 24 16 7 4 3 1 2 2 0 1 1 1 1 1 1 1 1 2 1 2 2 2 6 4 2 7 5 2 4 4 4 4 4 9 10 6 3 2 2 4 3 5 6 3 4 1 5 4 8 8 7 11 13 10 9 9 8 6 3 4 9 7 7 9 6 4 10 9 6 7 13 17 18 19 19 15 13 12 13 15 16
24 8 3 18 30 34 29 19 10 3 5 3 3 2 1 1 2 1 1 1 1 2 0 1 2 1 2 2 1 6 5 2 5 4 2 2 2 4 4 3 7 9 8 5 2 1 2 6 6 6 4 3 3 5 7 9 7 5 10 12 8 7 9 8 7 5 7 10 6 6 11 10 6 8 8 10 10 12 15 16 18 19 15 14 14 14 16 18
19 8 2 16 33 34 23 13 5 3 3 2 3 2 2 1 2 3 3 1 0 1 1 0 1 0 1 1 1 4 4 2 3 4 3 2 1 4 3 2 5 8 10 7 3 0 3 6 5 4 5 3 4 4 7 10 11 9 7 9 9 8 10 9 7 8 9 9 6 6 9 10 9 7 5 11 15 14 13 13 16 17 15 14 15 15 17 18
11 4 1 18 37 31 16 8 4 2 2 2 2 2 2 2 4 7 5 2 1 1 1 1 0 0 1 1 1 2 3 2 3 3 2 2 1 3 4 3 4 8 10 8 4 2 3 4 3 1 2 5 2 5 9 10 12 12 8 8 9 8 8 10 8 7 7 7 7 6 7 8 9 8 7 10 15 16 14 11 12 14 14 14 14 14 15 16
6 1 1 22 38 25 10 8 7 4 3 3 2 2 2 3 5 9 8 3 0 0 0 2 1 1 1 1 0 0 1 2 2 1 0 1 1 2 5 4 5 9 11 8 4 3 2 3 4 2 3 6 4 6 8 6 6 9 9 10 12 8 4 7 9 8 7 7 6 6 7 7 4 5 10 13 13 16 16 11 10 12 13 14 14 14 14 15
4 1 2 26 37 19 7 9 7 4 3 3 2 2 4 5 6 8 9 6 2 1 1 1 1 1 1 1 1 1 1 3 2 2 2 1 0 1 3 5 6 9 9 6 3 2 2 2 4 5 5 6 4 2 2 2 2 2 4 7 10 10 7 8 10 10 9 8 7 6 7 7 3 3 8 13 13 14 16 14 12 11 13 14 14 15 15 15
4 2 6 29 33 14 6 7 3 3 3 2 3 2 4 5 5 7 9 7 4 3 2 0 1 1 1 0 0 1 2 3 3 3 2 2 2 2 2 5 5 7 6 5 4 3 4 3 4 7 7 9 11 9 5 3 3 3 4 5 6 7 9 10 9 8 10 10 8 7 8 7 4 3 5 9 10 11 12 13 12 12 12 12 13 15 16 15
4 2 8 28 28 8 4 6 3 3 3 3 3 2 3 4 6 6 7 7 5 4 2 1 1 0 2 2 1 0 2 2 3 3 2 3 3 2 1 4 5 6 5 4 4 4 4 4 4 6 6 9 14 11 4 3 4 4 4 4 4 5 5 6 6 4 7 11 9 8 9 7 4 3 4 8 8 8 8 8 10 10 8 8 11 14 15 15
3 2 5 23 29 13 4 4 3 3 4 4 4 5 4 5 7 8 7 6 6 5 3 3 2 1 3 4 2 1 2 2 2 3 3 4 2 1 0 1 3 5 4 3 3 4 3 3 2 4 4 6 9 7 4 4 3 1 1 1 2 5 7 7 5 3 6 11 12 10 8 6 3 3 4 10 9 7 9 8 7 7 5 4 5 7 10 11
3 1 2 13 23 16 6 3 3 3 4 5 5 7 7 5 6 8 7 6 7 6 3 3 4 3 5 5 2 1 2 3 3 2 3 3 2 1 2 2 1 4 6 7 7 5 4 3 3 4 5 7 7 5 3 1 0 0 1 2 2 3 5 5 3 4 6 9 12 11 7 5 3 3 7 11 9 7 7 6 5 6 7 5 4 4 6 7
1 2 1 5 9 8 5 4 4 3 4 5 4 5 8 6 5 7 6 6 8 8 5 4 4 4 6 7 4 3 3 4 4 4 4 5 5 3 2 3 3 6 10 11 8 4 4 5 7 8 8 8 5 2 3 5 5 4 4 4 3 1 2 3 3 5 4 5 9 8 5 6 6 6 6 6 5 6 5 3 3 2 3 4 4 3 5 7
1 1 3 3 3 4 4 5 5 4 4 4 3 4 7 6 5 5 5 4 7 8 4 4 6 6 6 7 5 4 4 4 6 7 7 7 6 4 3 4 6 9 10 9 5 3 4 6 9 12 13 13 12 10 9 9 9 9 9 8 6 3 3 3 5 4 4 4 7 5 5 8 6 2 3 6 6 7 6 6 6 6 6 6 6 5 5 8
2 1 2 2 2 3 4 5 6 6 4 4 3 4 6 6 6 5 4 3 5 6 2 2 5 7 6 6 5 4 5 5 6 6 5 6 6 6 6 6 7 8 8 5 2 2 4 6 9 12 13 15 16 13 10 10 11 11 11 12 10 7 6 6 9 8 5 5 5 2 2 4 1 4 6 8 9 9 10 9 8 8 8 8 8 9 8 9
2 2 1 1 1 2 2 3 4 5 5 5 4 4 5 6 6 5 4 4 4 4 3 2 4 6 6 6 4 4 5 6 7 6 6 8 8 8 7 6 6 5 5 5 2 0 3 6 8 10 12 15 16 13 11 12 14 14 14 14 11 8 8 7 9 11 10 8 8 10 8 1 3 5 8 8 8 9 8 8 8 8 9 10 10 11 11 11
2 1 1 2 1 1 1 1 3 3 3 3 3 4 5 5 6 6 5 5 6 4 3 5 7 7 6 5 4 6 7 8 10 9 9 10 10 7 5 5 5 3 4 4 2 1 3 5 6 7 9 12 14 12 12 13 14 14 13 12 9 6 4 3 2 4 6 7 8 12 11 2 3 6 7 7 7 6 6 8 9 8 10 11 11 11 12 13
2 1 1 1 1 1 0 1 2 3 2 2 3 4 4 4 5 8 6 5 5 4 3 7 9 7 6 6 7 9 9 9 11 13 12 11 11 9 6 6 6 5 5 5 4 3 3 4 6 6 7 8 8 7 7 8 10 12 13 10 6 2 2 4 6 5 3 3 5 7 7 2 4 8 7 5 5 6 7 9 9 9 10 11 12 12 13 14
3 2 1 0 1 2 2 2 2 2 2 3 4 5 4 3 5 7 5 2 2 3 4 7 10 8 6 8 9 9 9 11 13 14 13 12 14 13 11 12 12 10 9 7 6 5 4 5 5 4 6 6 3 2 4 6 7 9 10 9 7 7 7 6 8 9 9 5 4 4 3 5 8 10 7 4 5 6 7 8 8 10 11 12 13 14 14 14
Wind_Direction
1 2 3 0 356 353 352 353 352 353 354 354 353 352 352 352 350 346 342 338 333 323 316 315 316 317 317 318 317 319 320 308 298 263 248 273 284 261 253 248 182 162 150 152 150 146 151 161 153 152 158 157 184 182 183 198 192 191 201 226 235 232 238 220 208 17 29 126 155 170 176 156 147 149 134 136 136 136 146 130 123 107 81 122 135 144 151 153
6 5 5 2 359 357 355 355 354 354 353 353 352 351 351 351 348 344 339 336 333 323 315 312 312 316 316 320 317 320 323 303 280 254 262 312 332 294 243 220 175 162 153 154 156 153 157 164 157 154 161 161 174 179 181 186 190 199 199 226 232 217 223 249 296 343 342 339 161 176 184 172 158 150 155 159 152 151 149 135 127 110 107 123 135 146 152 155
9 8 6 5 2 360 357 357 356 354 353 353 351 350 350 349 347 344 338 334 332 325 318 312 313 317 318 325 322 328 322 298 283 258 321 358 343 318 238 204 179 169 163 165 166 162 161 159 157 155 160 169 171 179 185 187 190 203 209 230 236 235 258 270 274 286 295 285 175 174 181 186 164 150 170 166 157 169 169 155 149 139 137 141 145 150 154 158
9 7 6 5 3 0 358 358 356 354 353 353 351 350 350 349 347 344 338 333 332 328 321 317 318 319 322 338 336 341 318 271 6 340 346 341 327 321 223 192 179 178 172 167 165 160 149 145 152 152 154 169 168 177 191 193 186 190 208 228 223 228 253 257 301 316 298 244 179 165 173 184 167 160 174 158 157 189 196 181 166 155 150 151 154 155 158 162
8 7 5 4 2 0 358 358 357 354 353 353 351 349 350 350 347 345 340 334 334 331 327 326 325 327 331 347 350 351 311 218 50 356 358 346 319 322 199 180 176 181 171 161 156 144 139 140 148 146 152 165 163 181 203 199 195 204 217 234 229 218 256 267 20 34 39 102 154 161 178 172 162 177 180 173 180 200 200 188 165 152 152 156 159 159 162 165
8 6 4 3 1 359 358 358 357 355 355 354 351 350 351 349 347 348 346 339 336 331 334 338 338 341 342 351 7 7 296 230 19 358 7 5 338 346 171 170 175 178 167 157 150 144 144 147 154 155 165 166 176 192 197 195 204 229 230 235 236 245 261 273 298 338 358 358 171 177 182 157 167 192 191 193 201 148 146 163 151 149 154 156 159 162 166 169
8 6 4 2 0 359 358 358 358 358 357 355 351 351 351 347 346 349 351 346 337 330 337 359 3 359 356 359 4 41 274 276 0 4 5 8 357 19 162 166 174 172 162 158 155 155 153 159 171 163 165 169 190 203 183 190 208 237 248 241 236 243 252 266 287 299 314 271 228 193 174 172 188 197 191 203 212 117 132 145 144 148 153 156 160 167 171 172
8 6 4 1 359 358 358 358 359 359 359 356 351 350 348 344 343 348 351 345 334 330 345 23 26 22 11 12 323 305 282 240 47 3 357 7 13 136 156 162 173 168 163 165 164 166 161 168 176 161 178 184 181 195 185 185 208 230 242 250 237 242 253 266 281 286 293 280 248 191 190 197 197 188 187 204 201 140 140 140 143 148 153 160 164 169 173 173
8 6 3 1 359 358 358 358 359 0 359 356 351 348 344 339 338 344 348 340 336 337 8 28 35 40 24 31 313 310 318 196 124 354 354 7 19 150 157 164 173 167 165 170 167 169 167 176 180 169 187 184 170 188 189 192 211 223 232 254 252 251 262 274 280 279 285 285 223 192 211 209 191 179 200 203 183 144 141 143 147 152 157 164 168 170 173 175
8 6 3 1 358 358 358 357 359 359 357 355 349 343 338 334 333 341 344 338 345 7 19 27 32 37 41 40 291 317 9 326 313 350 0 12 26 160 167 173 173 169 167 170 171 174 178 182 175 157 170 173 182 188 188 201 223 212 228 250 255 265 272 273 277 273 279 275 229 215 229 211 183 195 215 185 166 149 143 150 153 157 162 167 170 171 174 177
8 7 3 1 358 358 358 358 359 357 354 350 343 337 331 329 332 342 344 344 9 17 10 20 5 13 111 37 269 310 346 324 324 1 9 7 336 177 184 183 177 175 168 170 180 181 184 176 158 139 165 167 181 191 198 214 273 252 235 256 253 263 268 262 264 262 264 259 227 222 236 202 178 210 220 166 159 157 150 155 160 164 166 168 171 171 175 180
8 7 3 0 358 357 358 358 358 356 354 347 339 332 327 329 340 349 349 5 16 4 357 351 347 200 167 128 206 302 343 336 350 9 10 8 341 202 207 195 186 186 176 175 184 185 182 168 168 175 170 151 164 188 221 218 243 253 256 273 266 273 270 256 250 246 238 237 210 202 229 196 191 216 205 159 160 161 157 160 164 168 168 169 171 171 177 181
7 6 3 360 357 357 358 358 358 358 353 347 338 329 328 336 352 358 11 20 5 351 345 344 344 177 175 159 210 332 359 6 1 355 357 5 5 242 223 211 193 193 196 188 178 178 177 175 183 188 162 166 168 135 275 207 216 234 239 259 273 285 273 250 231 226 225 224 176 178 236 207 202 214 184 156 162 163 162 167 169 171 170 172 173 173 179 180
6 6 2 359 357 357 358 360 360 359 356 347 338 333 338 351 2 17 29 7 357 350 357 20 89 172 274 227 221 357 0 353 342 342 348 350 353 346 209 211 192 185 193 191 176 173 175 179 194 205 197 216 197 312 289 190 194 218 223 238 249 260 259 228 178 203 212 199 167 186 254 234 206 206 179 161 166 168 171 173 173 173 172 173 176 178 180 181
5 5 2 359 357 357 359 2 1 2 1 349 342 347 354 358 14 55 20 360 357 6 24 68 93 218 291 219 315 354 353 345 335 335 343 333 326 330 182 186 183 176 150 161 175 181 177 170 188 211 209 220 284 252 241 203 192 207 211 224 219 229 255 250 195 201 212 184 174 194 247 250 223 198 175 169 171 173 176 177 176 177 176 176 178 180 182 184
4 3 1 358 357 359 360 3 4 6 6 354 350 6 2 6 75 62 10 358 2 24 359 184 21 287 311 16 336 344 346 338 333 333 337 326 303 280 162 165 172 177 154 123 158 174 179 178 182 211 216 214 229 224 223 223 218 204 213 228 202 203 243 250 218 220 223 192 182 200 232 257 222 186 173 172 177 178 179 180 181 180 178 178 179 181 183 185
3 2 0 359 358 360 0 4 6 10 11 0 355 15 8 19 118 51 2 357 359 20 299 240 291 262 251 3 344 341 337 328 329 332 341 346 306 184 145 147 166 177 163 105 135 157 172 186 175 200 217 224 217 203 219 223 214 196 210 231 208 207 232 237 221 230 219 210 201 207 230 242 179 164 174 176 179 182 183 183 183 182 181 180 181 183 184 186
2 1 360 359 359 2 2 7 10 13 16 8 355 19 17 24 125 44 359 354 343 227 267 245 285 230 248 344 344 325 319 319 327 336 352 10 17 167 149 140 157 164 159 136 139 153 170 184 187 201 205 215 210 201 212 216 207 199 200 217 214 217 233 229 216 211 201 214 216 209 226 236 208 164 179 184 182 187 190 186 184 183 182 181 182 186 187 189
1 0 360 359 0 4 4 10 15 14 20 18 6 358 19 23 137 25 358 359 21 131 345 316 344 64 291 317 320 314 315 317 336 355 5 13 71 152 144 134 148 160 168 171 165 163 169 173 191 206 206 207 206 206 211 203 178 210 208 219 220 219 235 232 218 233 209 216 221 218 228 234 220 191 188 189 187 193 193 184 183 184 183 184 186 189 190 193
1 0 359 359 1 5 6 14 19 17 24 27 26 350 10 14 342 348 356 357 60 47 317 296 328 266 294 307 313 328 334 334 358 8 6 8 103 138 127 128 145 163 178 179 170 160 174 187 199 209 212 206 202 204 212 222 359 221 211 220 228 227 238 234 216 238 248 238 230 224 234 241 232 211 195 190 190 196 193 184 185 186 186 188 189 192 193 197
0 360 359 359 2 6 11 18 20 21 29 34 40 54 35 18 3 338 346 329 246 263 267 262 259 253 284 294 307 336 348 331 329 5 10 13 111 147 140 143 153 176 185 173 148 140 183 208 214 212 208 190 188 197 208 220 231 240 218 218 227 227 239 248 238 245 236 244 245 233 241 244 240 226 199 186 191 197 195 190 189 190 191 192 192 194 195 193
360 360 358 359 5 8 13 23 20 22 31 39 48 64 100 38 352 291 310 312 283 283 255 264 252 255 288 284 300 347 319 307 326 358 10 11 45 129 159 175 181 180 171 163 150 163 201 222 222 205 178 167 188 196 204 216 226 236 233 225 227 214 244 264 254 247 226 237 250 240 246 249 247 237 205 190 196 201 200 196 193 191 191 193 195 194 191 187
360 0 358 359 6 6 13 28 19 18 28 44 54 64 82 7 341 288 225 290 296 308 266 288 264 308 326 330 3 350 330 346 333 347 359 2 23 25 216 196 198 178 171 183 188 189 202 226 221 186 158 189 200 195 202 212 222 230 228 228 224 193 221 243 230 226 230 241 254 256 259 256 252 239 209 201 204 204 204 204 199 193 192 195 197 192 188 187
360 0 359 0 6 5 13 22 13 14 21 52 69 46 358 339 338 308 213 258 305 301 267 290 280 335 340 335 336 335 345 26 306 334 348 353 4 340 257 201 201 201 191 197 206 211 214 219 192 172 169 197 203 195 202 210 218 224 227 230 225 208 224 243 297 324 262 240 239 249 266 259 240 237 226 207 208 210 206 205 204 202 202 200 195 193 191 190
359 0 360 1 8 10 12 15 9 4 6 75 75 360 335 334 338 218 216 242 285 254 196 214 209 358 336 323 330 330 289 194 288 316 328 346 348 304 240 179 207 218 202 197 215 228 231 174 152 169 181 197 205 205 202 206 218 223 224 228 230 229 233 249 280 294 274 238 207 206 249 254 213 227 236 202 197 213 208 203 206 206 205 201 197 197 195 194
357 360 359 359 9 14 14 25 1 358 4 63 353 334 329 333 328 172 188 250 252 115 109 326 307 0 350 337 336 318 202 92 332 314 334 354 344 277 234 186 197 224 200 189 221 241 226 203 171 178 190 195 203 213 204 200 217 230 218 216 223 233 239 242 252 255 252 253 224 196 242 255 197 216 229 197 190 207 206 205 209 206 201 201 202 200 195 195
354 357 357 354 4 18 27 331 353 6 17 328 333 333 330 331 168 170 215 244 127 42 347 346 341 355 357 344 338 332 169 338 323 327 357 345 334 249 233 208 183 212 180 174 225 219 197 207 195 188 199 201 204 213 199 193 213 235 202 192 207 223 232 235 243 244 251 281 283 250 241 263 250 219 215 200 200 206 204 206 211 208 203 204 206 203 199 197
351 353 354 350 357 21 35 6 1 10 341 329 335 337 333 303 157 165 275 259 331 31 355 1 334 344 346 336 359 25 45 340 337 341 339 330 321 207 235 227 216 207 177 188 224 180 174 208 203 189 203 215 213 213 193 191 213 231 174 171 197 215 226 232 239 244 252 274 264 242 220 255 256 215 180 197 210 213 206 206 210 207 205 205 207 206 203 200
347 349 351 348 352 14 15 18 11 349 340 341 342 341 355 144 156 174 306 245 66 77 48 349 337 344 337 330 19 30 11 6 14 316 322 327 333 262 235 257 260 231 205 209 229 211 185 222 205 190 208 222 215 216 198 195 213 214 168 179 199 211 220 226 234 243 248 249 251 235 204 237 259 223 185 195 212 215 206 208 212 208 206 206 206 207 204 200
344 346 349 348 358 5 355 353 351 346 347 347 343 350 131 146 188 254 215 225 43 60 342 352 355 333 347 358 22 19 13 12 351 323 327 343 353 3 174 319 318 259 236 219 227 236 257 271 232 200 213 213 205 215 208 205 209 188 177 196 202 207 212 220 226 235 245 243 244 237 213 224 259 243 206 203 203 195 194 207 212 208 210 210 209 209 205 199
342 344 347 347 1 6 359 338 342 347 349 346 347 43 153 170 279 211 210 192 102 32 33 24 18 353 16 32 17 1 6 2 355 356 3 7 16 28 31 348 2 304 234 219 221 216 227 247 235 211 214 201 201 214 208 210 210 195 196 203 197 198 201 214 211 210 235 243 238 232 219 220 245 246 211 200 183 185 200 207 205 204 209 212 211 211 206 202
341 342 347 23 22 7 2 337 340 345 346 345 349 131 180 292 215 211 316 170 195 31 72 23 17 19 24 41 19 358 350 358 5 6 9 19 41 40 39 27 353 289 217 220 216 193 215 230 218 223 216 196 201 210 199 206 210 205 204 198 198 197 187 205 206 206 229 239 232 220 210 220 244 254 233 212 190 204 215 212 202 201 206 209 209 208 205 204
341 345 14 68 33 7 355 344 343 342 342 345 341 178 177 241 222 210 32 59 46 46 71 26 22 28 20 30 16 358 348 11 4 359 8 26 54 64 58 34 7 298 237 281 234 198 217 222 211 218 217 199 203 206 199 199 201 205 203 198 201 196 194 207 208 218 229 232 226 203 199 233 253 255 232 222 220 222 224 223 212 203 204 207 206 205 204 203
342 357 66 41 21 5 353 345 343 339 337 344 336 315 200 222 221 89 83 4 51 52 65 64 359 28 44 48 19 358 5 35 7 357 6 25 39 51 44 25 18 3 310 298 266 222 223 220 207 204 205 238 215 213 213 197 194 206 203 205 211 203 209 213 206 221 230 233 211 185 186 229 234 240 218 215 220 221 223 227 222 211 208 206 203 203 203 204
344 13 82 18 11 358 351 343 337 334 315 323 337 293 234 230 196 135 182 15 84 356 71 93 359 35 58 51 35 20 15 15 6 357 16 47 42 32 23 14 16 13 350 273 327 311 246 243 41 211 271 336 236 238 224 199 201 206 197 208 217 209 211 218 226 230 230 251 223 191 210 239 240 308 296 229 225 219 217 220 217 218 214 203 202 202 201 205
349 28 58 7 3 352 349 343 332 317 230 215 196 220 241 279 28 167 135 33 154 114 104 117 50 51 32 35 38 27 22 1 2 355 35 51 44 46 48 23 17 18 14 339 315 339 264 258 7 345 273 155 52 329 269 224 218 188 193 213 212 202 208 220 237 228 220 247 231 193 231 247 275 278 254 215 226 223 218 217 216 218 207 189 198 202 200 206
351 11 17 5 357 349 349 346 331 261 189 179 167 190 325 67 40 336 9 18 129 109 77 308 39 14 354 22 27 17 15 357 7 5 12 22 33 46 49 45 27 15 9 354 290 301 298 284 314 307 230 139 9 312 262 252 246 192 199 204 187 192 212 224 235 216 214 238 221 188 230 235 232 249 220 193 211 225 220 215 218 219 204 190 199 202 200 204
341 344 19 3 353 348 351 357 12 147 165 138 142 116 26 54 46 7 353 2 118 102 129 204 32 127 305 351 26 17 355 339 23 12 348 337 31 43 25 21 27 6 353 343 295 305 321 290 291 256 237 304 337 261 237 236 231 236 225 187 177 201 207 206 226 226 222 236 231 204 228 237 228 229 211 197 207 223 224 213 217 218 203 200 207 203 200 202
343 338 95 357 351 351 357 15 50 94 96 72 96 77 20 356 20 7 351 357 83 75 132 193 307 161 159 10 41 23 349 342 6 357 357 359 2 63 47 7 1 358 346 333 302 306 318 280 252 178 276 306 309 208 221 214 212 230 231 194 197 216 210 202 213 229 228 237 242 219 216 238 235 228 236 221 209 217 221 212 218 217 203 202 208 204 199 198
359 20 88 355 351 353 13 43 52 42 57 70 49 31 8 349 357 356 352 360 77 24 279 197 200 193 124 101 151 40 349 310 313 308 196 345 318 86 61 21 354 349 337 320 293 285 301 262 254 300 309 274 228 189 209 208 200 216 218 210 209 205 202 211 215 220 227 235 238 228 227 240 233 206 228 233 218 215 218 214 214 214 205 204 205 202 197 195
343 82 13 353 353 357 31 53 49 29 57 77 40 20 1 356 349 353 2 5 19 61 8 193 175 176 146 145 158 115 315 285 276 261 243 244 225 115 58 36 4 347 335 317 303 317 315 275 274 293 286 253 224 145 118 57 24 250 235 228 219 209 201 213 220 214 220 237 234 234 250 248 223 181 218 227 220 213 212 213 215 213 209 206 201 199 197 193
353 59 337 350 358 9 55 63 45 24 68 41 1 322 316 345 354 0 9 7 16 43 20 134 137 122 144 252 252 117 331 297 261 264 253 214 224 280 27 43 5 338 333 313 302 327 318 284 270 274 270 268 274 284 301 289 268 262 255 259 264 244 216 217 226 208 208 228 231 239 259 256 230 220 237 237 232 227 218 211 214 215 209 203 199 199 198 194
13 340 331 356 9 28 80 63 49 31 51 2 345 309 296 356 17 19 21 16 14 8 355 62 149 134 73 23 333 241 335 305 257 263 261 244 248 269 7 43 5 328 326 319 312 332 311 265 258 270 270 275 272 270 273 230 207 197 223 248 282 281 266 261 264 232 213 218 215 228 247 250 228 203 249 258 249 254 259 242 231 230 215 201 201 199 197 194
352 280 315 5 23 45 77 54 39 31 29 1 15 27 12 23 28 20 23 27 18 354 345 18 8 43 48 6 327 259 309 297 263 263 271 272 252 201 225 76 13 327 321 329 339 340 312 257 250 267 248 237 237 218 165 159 168 165 217 216 269 311 324 305 275 265 236 218 213 224 237 249 239 166 231 257 255 253 256 254 253 259 262 240 215 207 203 198
319 240 257 1 23 43 75 69 45 51 30 13 29 29 14 17 23 13 16 34 25 3 356 19 14 42 36 360 337 352 313 280 272 277 271 276 269 256 246 199 256 312 302 299 307 305 287 265 252 248 230 214 206 194 184 191 217 316 219 230 283 337 339 311 254 235 235 213 213 228 237 248 240 186 221 242 253 259 245 231 231 239 250 254 238 218 213 209
322 28 357 351 17 42 76 70 41 45 31 19 33 27 12 8 10 8 12 31 25 11 12 29 17 28 26 8 356 341 314 269 268 284 278 283 291 282 236 216 252 293 293 292 297 290 273 263 252 251 255 259 266 294 312 311 305 290 282 283 278 293 333 312 228 226 242 216 215 219 224 238 222 195 221 247 268 279 266 252 258 260 283 280 263 236 215 210
32 26 5 352 359 31 49 46 31 27 19 12 15 13 10 5 360 4 11 21 17 6 11 54 45 35 17 5 350 319 310 289 280 287 284 288 296 291 268 258 274 290 290 287 293 292 274 261 255 255 259 268 280 291 297 297 287 279 285 288 284 281 286 250 228 260 322 265 226 190 188 234 231 181 310 325 326 313 323 341 337 337 333 317 309 301 264 227
29 80 21 335 342 22 28 23 16 10 5 7 20 14 6 7 8 6 3 356 3 7 4 78 54 32 5 354 336 298 300 300 283 281 292 302 308 307 303 293 285 286 282 274 289 312 279 265 263 266 269 273 278 281 284 281 274 270 271 273 277 283 276 254 245 256 274 259 258 294 242 231 299 3 336 335 336 324 325 335 336 331 327 327 322 307 284 250
39 83 57 343 351 359 353 356 355 360 7 9 23 22 4 5 8 2 351 327 331 8 12 317 349 359 344 337 324 292 292 299 293 295 305 305 304 303 302 295 286 274 259 257 260 257 263 264 264 272 277 276 275 274 272 269 268 266 262 260 264 270 268 267 254 241 239 242 260 283 289 316 53 354 334 332 331 325 320 328 340 339 337 335 320 303 290 270
41 57 21 345 327 281 266 343 347 353 16 13 24 21 360 355 357 349 337 309 305 336 4 325 323 328 318 315 302 275 273 285 289 290 292 294 293 289 280 278 273 250 237 244 246 213 236 262 284 296 285 273 274 274 264 257 258 260 259 251 245 250 262 307 318 254 246 241 246 267 273 254 57 357 336 326 327 332 328 335 344 341 336 330 313 299 289 276
11 325 315 321 334 336 356 40 353 347 14 18 9 4 352 347 348 338 323 299 292 293 304 312 317 319 308 298 281 271 277 282 279 277 275 275 275 271 264 257 251 250 247 243 244 226 225 267 296 304 285 273 277 274 262 261 263 260 255 239 213 183 95 64 52 41 3 292 264 271 269 254 10 345 324 320 341 346 340 340 341 334 330 324 311 300 288 275
354 316 279 246 327 1 17 18 352 350 9 358 349 351 339 316 330 335 330 331 310 267 268 299 316 320 307 293 285 286 293 289 280 278 275 267 262 258 256 249 244 249 252 249 251 241 236 265 279 281 278 270 265 300 303 291 269 250 234 212 168 113 95 79 55 38 20 349 274 260 297 332 339 327 311 315 339 349 358 353 343 336 329 322 314 306 297 289